Multibeam Report for FK150728


Ship Name: Falkor
Chief Scientist: Richards, Kelvin
University of Hawaii
Source Organization: UNOLS R2R
Start Date: 2015-07-28
End Date: 2015-08-19


View ISO Metadata

Visit the full NCEI Bathymetry Viewer


Multibeam Bathymetry

Cruise Details

Project: Mixing up the Tropical Pacific
Instrument: Kongsberg EM302

Data Quality

Number of Files: 84
Number of Records: 26887
BATHYMETRY DATA Quantity Percentage
Number of Beams 11615184 100%
Number of Good Beams 9320887 80.25%
Number of Zero Beams 0 0%
Number of Flagged Beams 2294297 19.75%

Navigation Totals

Total Time: 72.7883 hours
Total Track Length: 1417.0846 km
Average Speed: 19.469 km/hr (10.5124 knots)

Cruise Bounds

Northern Extent: 5.444218
Southern Extent: 0.055802
Western Extent: -177.42766
Eastern Extent: -169.93367

Limits

Minimum Sonar Depth 3.2521 Maximum Sonar Depth 8.8089
Minimum Altitude 3171.177 Maximum Altitude 6607.5908
Minimum Depth 884.7438 Maximum Depth 6990.1084

File Information

Full Resolution Bathymetry as collected (raw): 79

Files File Size Description
0000_20150801_005042_FK150728_EM302.all.mb58.gz 83.89MB Kongsberg multibeam vendor format
0001_20150801_021118_FK150728_EM302.all.mb58.gz 84.31MB Kongsberg multibeam vendor format
0002_20150801_031118_FK150728_EM302.all.mb58.gz 84.58MB Kongsberg multibeam vendor format
0003_20150801_041121_FK150728_EM302.all.mb58.gz 84.75MB Kongsberg multibeam vendor format
0004_20150801_051120_FK150728_EM302.all.mb58.gz 84.64MB Kongsberg multibeam vendor format
0005_20150801_061119_FK150728_EM302.all.mb58.gz 84.63MB Kongsberg multibeam vendor format
0006_20150801_071120_FK150728_EM302.all.mb58.gz 84.61MB Kongsberg multibeam vendor format
0007_20150801_081123_FK150728_EM302.all.mb58.gz 84.55MB Kongsberg multibeam vendor format
0008_20150801_091121_FK150728_EM302.all.mb58.gz 84.81MB Kongsberg multibeam vendor format
0009_20150801_101124_FK150728_EM302.all.mb58.gz 84.43MB Kongsberg multibeam vendor format
0010_20150801_111116_FK150728_EM302.all.mb58.gz 84.60MB Kongsberg multibeam vendor format
0011_20150801_121118_FK150728_EM302.all.mb58.gz 84.56MB Kongsberg multibeam vendor format
0012_20150801_131118_FK150728_EM302.all.mb58.gz 84.46MB Kongsberg multibeam vendor format
0013_20150801_141117_FK150728_EM302.all.mb58.gz 84.66MB Kongsberg multibeam vendor format
0014_20150801_151124_FK150728_EM302.all.mb58.gz 84.03MB Kongsberg multibeam vendor format
0015_20150801_161118_FK150728_EM302.all.mb58.gz 84.60MB Kongsberg multibeam vendor format
0016_20150801_171120_FK150728_EM302.all.mb58.gz 84.45MB Kongsberg multibeam vendor format
0017_20150801_181118_FK150728_EM302.all.mb58.gz 84.53MB Kongsberg multibeam vendor format
0018_20150801_191123_FK150728_EM302.all.mb58.gz 84.48MB Kongsberg multibeam vendor format
0019_20150801_201119_FK150728_EM302.all.mb58.gz 84.62MB Kongsberg multibeam vendor format
0020_20150801_211123_FK150728_EM302.all.mb58.gz 84.02MB Kongsberg multibeam vendor format
0021_20150801_221118_FK150728_EM302.all.mb58.gz 83.86MB Kongsberg multibeam vendor format
0022_20150801_231119_FK150728_EM302.all.mb58.gz 83.59MB Kongsberg multibeam vendor format
0023_20150802_001117_FK150728_EM302.all.mb58.gz 83.84MB Kongsberg multibeam vendor format
0024_20150802_011126_FK150728_EM302.all.mb58.gz 83.74MB Kongsberg multibeam vendor format
0025_20150802_021119_FK150728_EM302.all.mb58.gz 84.14MB Kongsberg multibeam vendor format
0026_20150802_031125_FK150728_EM302.all.mb58.gz 83.72MB Kongsberg multibeam vendor format
0027_20150802_041120_FK150728_EM302.all.mb58.gz 83.94MB Kongsberg multibeam vendor format
0028_20150802_051125_FK150728_EM302.all.mb58.gz 83.79MB Kongsberg multibeam vendor format
0029_20150802_061122_FK150728_EM302.all.mb58.gz 83.88MB Kongsberg multibeam vendor format
0030_20150802_071123_FK150728_EM302.all.mb58.gz 83.71MB Kongsberg multibeam vendor format
0031_20150802_081118_FK150728_EM302.all.mb58.gz 84.00MB Kongsberg multibeam vendor format
0032_20150802_091125_FK150728_EM302.all.mb58.gz 83.81MB Kongsberg multibeam vendor format
0033_20150802_101123_FK150728_EM302.all.mb58.gz 83.67MB Kongsberg multibeam vendor format
0034_20150802_111121_FK150728_EM302.all.mb58.gz 2.99MB Kongsberg multibeam vendor format
0035_20150802_125331_FK150728_EM302.all.mb58.gz 83.45MB Kongsberg multibeam vendor format
0036_20150802_135326_FK150728_EM302.all.mb58.gz 83.88MB Kongsberg multibeam vendor format
0037_20150802_145334_FK150728_EM302.all.mb58.gz 42.75MB Kongsberg multibeam vendor format
0038_20150802_161630_FK150728_EM302.all.mb58.gz 262.3KB Kongsberg multibeam vendor format
0039_20150802_161711_FK150728_EM302.all.mb58.gz 83.88MB Kongsberg multibeam vendor format
0040_20150802_171715_FK150728_EM302.all.mb58.gz 83.74MB Kongsberg multibeam vendor format
0041_20150802_181713_FK150728_EM302.all.mb58.gz 83.50MB Kongsberg multibeam vendor format
0042_20150802_191707_FK150728_EM302.all.mb58.gz 83.12MB Kongsberg multibeam vendor format
0043_20150802_201712_FK150728_EM302.all.mb58.gz 83.27MB Kongsberg multibeam vendor format
0044_20150802_211710_FK150728_EM302.all.mb58.gz 83.80MB Kongsberg multibeam vendor format
0045_20150802_221709_FK150728_EM302.all.mb58.gz 83.79MB Kongsberg multibeam vendor format
0046_20150802_231707_FK150728_EM302.all.mb58.gz 83.94MB Kongsberg multibeam vendor format
0047_20150803_001713_FK150728_EM302.all.mb58.gz 83.59MB Kongsberg multibeam vendor format
0048_20150803_011708_FK150728_EM302.all.mb58.gz 84.01MB Kongsberg multibeam vendor format
0049_20150803_021716_FK150728_EM302.all.mb58.gz 83.71MB Kongsberg multibeam vendor format
0050_20150803_031708_FK150728_EM302.all.mb58.gz 83.83MB Kongsberg multibeam vendor format
0051_20150803_041712_FK150728_EM302.all.mb58.gz 83.77MB Kongsberg multibeam vendor format
0052_20150803_051715_FK150728_EM302.all.mb58.gz 83.81MB Kongsberg multibeam vendor format
0053_20150803_061713_FK150728_EM302.all.mb58.gz 83.85MB Kongsberg multibeam vendor format
0054_20150803_071712_FK150728_EM302.all.mb58.gz 83.36MB Kongsberg multibeam vendor format
0055_20150803_081709_FK150728_EM302.all.mb58.gz 83.81MB Kongsberg multibeam vendor format
0056_20150803_091715_FK150728_EM302.all.mb58.gz 83.57MB Kongsberg multibeam vendor format
0057_20150803_101708_FK150728_EM302.all.mb58.gz 83.82MB Kongsberg multibeam vendor format
0058_20150803_111709_FK150728_EM302.all.mb58.gz 83.80MB Kongsberg multibeam vendor format
0059_20150803_121713_FK150728_EM302.all.mb58.gz 83.72MB Kongsberg multibeam vendor format
0060_20150803_131711_FK150728_EM302.all.mb58.gz 83.93MB Kongsberg multibeam vendor format
0061_20150803_141714_FK150728_EM302.all.mb58.gz 83.53MB Kongsberg multibeam vendor format
0062_20150803_151713_FK150728_EM302.all.mb58.gz 83.78MB Kongsberg multibeam vendor format
0063_20150803_161718_FK150728_EM302.all.mb58.gz 83.59MB Kongsberg multibeam vendor format
0064_20150803_171710_FK150728_EM302.all.mb58.gz 83.65MB Kongsberg multibeam vendor format
0065_20150803_181711_FK150728_EM302.all.mb58.gz 16.69MB Kongsberg multibeam vendor format
0066_20150806_193736_FK150728_EM302.all.mb58.gz 15.94MB Kongsberg multibeam vendor format
0067_20150806_195721_FK150728_EM302.all.mb58.gz 52.51MB Kongsberg multibeam vendor format
0068_20150806_203459_FK150728_EM302.all.mb58.gz 83.92MB Kongsberg multibeam vendor format
0069_20150806_213505_FK150728_EM302.all.mb58.gz 11.17MB Kongsberg multibeam vendor format
0070_20150806_223441_FK150728_EM302.all.mb58.gz 83.75MB Kongsberg multibeam vendor format
0071_20150806_233440_FK150728_EM302.all.mb58.gz 83.91MB Kongsberg multibeam vendor format
0072_20150807_003446_FK150728_EM302.all.mb58.gz 74.06MB Kongsberg multibeam vendor format
0073_20150809_052720_FK150728_EM302.all.mb58.gz 83.65MB Kongsberg multibeam vendor format
0074_20150809_062716_FK150728_EM302.all.mb58.gz 83.90MB Kongsberg multibeam vendor format
0075_20150809_072723_FK150728_EM302.all.mb58.gz 83.53MB Kongsberg multibeam vendor format
0076_20150809_082716_FK150728_EM302.all.mb58.gz 76.86MB Kongsberg multibeam vendor format
0077_20150809_185410_FK150728_EM302.all.mb58.gz 83.98MB Kongsberg multibeam vendor format
0078_20150809_195406_FK150728_EM302.all.mb58.gz 45.56MB Kongsberg multibeam vendor format

Metadata Files: 3

Files File Size Description
FK150728_Multibeam.xml NGDC created ISO metadata
em302_bag_info.tar.gz 4.9KB Additional cruise information
xbt_bag_info.tar.gz 1.0KB Additional cruise information

Ancillary Files: 1

Files File Size Description
xbt.tar.gz 22.3KB Expendable Bathythermograph (XBT) data

Water Column Sonar Data

Water Column Sonar Data Available: WCSD Map Viewer